1488488401.22,50925,9.19,72764.8,-11.83,-27.99,-29.35,0,*68
1488488402.51,50926,9.13,72762.0,-11.85,-27.99,-29.39,0,*61
1488488403.76,50927,9.13,72768.8,-11.83,-28.05,-29.67,0,*67
1488488404.97,50928,9.19,72770.3,-11.83,-28.31,-29.79,0,*60
1488488406.27,50929,9.19,72772.0,-11.85,-28.21,-29.89,0,*69
1488488407.56,50930,9.13,72770.3,-11.85,-28.47,-29.89,0,*61
1488488408.81,50931,9.13,72766.8,-11.85,-28.69,-29.95,0,*61
1488488410.11,50932,9.19,72762.3,-11.85,-29.01,-29.89,0,*60
1488488411.35,50933,9.13,72760.0,-11.83,-29.39,-29.79,0,*63
1488488412.64,50934,9.19,72760.3,-11.85,-29.73,-29.73,0,*66
1488488413.88,50935,9.19,72752.5,-11.85,-30.11,-29.57,0,*6D
1488488415.12,50936,9.19,72752.0,-11.83,-30.45,-29.17,0,*6D
1488488416.38,50937,9.13,72752.5,-11.83,-30.61,-28.91,0,*65
1488488417.68,50938,9.19,72760.8,-11.85,-30.77,-28.63,0,*66
1488488418.95,50939,9.19,72760.8,-11.85,-30.95,-28.31,0,*6C
1488488420.23,50940,9.19,72762.3,-11.85,-31.11,-27.89,0,*63
1488488421.52,50941,9.19,72760.5,-11.85,-31.11,-27.45,0,*62
1488488422.82,50942,9.13,72756.3,-11.85,-31.11,-26.97,0,*6F
1488488424.06,50943,9.13,72760.3,-11.85,-31.01,-26.65,0,*62
1488488425.33,50944,9.19,72760.3,-11.85,-30.95,-26.03,0,*69
1488488426.61,50945,9.13,72758.8,-11.83,-30.89,-25.71,0,*65
1488488427.88,50946,9.13,72758.3,-11.85,-30.77,-25.13,0,*65
1488488429.14,50947,9.13,72758.0,-11.83,-30.73,-24.83,0,*6E
1488488430.43,50948,9.19,72760.3,-11.85,-30.55,-24.41,0,*6D
1488488431.67,50949,9.19,72762.3,-11.85,-30.27,-23.89,0,*6A
1488488432.91,50950,9.19,72762.3,-11.83,-30.11,-23.69,0,*6F
1488488434.13,50951,9.13,72758.8,-11.83,-29.95,-23.43,0,*62
1488488435.43,50952,9.19,72764.3,-11.85,-29.73,-23.03,0,*6B
1488488436.7,50953,9.19,72762.8,-11.85,-29.57,-22.77,0,*6E
1488488437.95,50954,9.13,72758.3,-11.85,-29.23,-22.57,0,*68
1488488439.22,50955,9.19,72762.3,-11.85,-28.85,-22.31,0,*64
1488488440.49,50956,9.19,72766.5,-11.85,-28.63,-22.07,0,*6A
1488488441.73,50957,9.19,72764.5,-11.83,-28.47,-21.93,0,*65
1488488442.95,50958,9.19,72766.3,-11.83,-28.15,-21.63,0,*62
1488488444.19,50959,9.19,72764.8,-11.85,-27.71,-21.47,0,*6E
1488488445.41,50960,9.13,72766.8,-11.83,-27.55,-21.17,0,*61
1488488446.68,50961,9.13,72764.8,-11.83,-27.35,-21.03,0,*63
1488488447.92,50962,9.19,72766.5,-11.85,-27.13,-20.73,0,*64
1488488449.16,50963,9.19,72764.8,-11.85,-26.87,-20.73,0,*69
1488488450.41,50964,9.13,72762.5,-11.83,-26.55,-20.39,0,*69
1488488451.69,50965,9.13,72756.8,-11.83,-26.17,-20.19,0,*6C
1488488452.93,50966,9.13,72756.8,-11.83,-25.97,-20.05,0,*69
1488488454.18,50967,9.13,72756.5,-11.85,-25.49,-19.91,0,*6A
1488488455.44,50968,9.13,72758.3,-11.85,-25.29,-19.75,0,*69
1488488456.74,50969,9.13,72758.8,-11.85,-24.87,-19.61,0,*68
1488488457.98,50970,9.13,72758.3,-11.85,-24.51,-19.51,0,*68
1488488459.23,50971,9.13,72762.0,-11.83,-24.15,-19.51,0,*6F
1488488460.47,50972,9.13,72760.0,-11.85,-23.59,-19.51,0,*65
1488488461.74,50973,9.13,72760.3,-11.85,-23.33,-19.51,0,*68
1488488462.99,50974,9.13,72760.3,-11.83,-22.93,-19.61,0,*61
1488488464.2,50975,9.13,72756.8,-11.83,-22.63,-19.75,0,*6A
1488488465.44,50976,9.13,72760.8,-11.85,-22.27,-20.05,0,*62
1488488466.7,50977,9.13,72760.8,-11.85,-22.07,-20.35,0,*62
1488488467.93,50978,9.13,72760.3,-11.83,-21.77,-20.59,0,*65
1488488469.19,50979,9.19,72764.8,-11.85,-21.47,-20.89,0,*6C
1488488470.45,50980,9.13,72764.0,-11.85,-21.13,-21.03,0,*68
1488488471.7,50981,9.13,72760.8,-11.85,-20.89,-21.39,0,*62
1488488472.97,50982,9.13,72768.5,-11.85,-20.59,-21.67,0,*67
1488488474.22,50983,9.13,72760.3,-11.83,-20.39,-21.97,0,*69
1488488475.45,50984,9.13,72740.8,-11.83,-20.19,-22.41,0,*64
1488488476.7,50985,9.13,72744.3,-11.83,-19.95,-22.73,0,*6A
1488488477.94,50986,9.13,72752.0,-11.83,-19.91,-23.19,0,*60
1488488479.16,50987,9.19,72754.8,-11.83,-19.91,-23.75,0,*6B
1488488480.4,50988,9.13,72754.3,-11.83,-19.75,-24.15,0,*6F
1488488481.65,50989,9.19,72764.5,-11.81,-19.71,-24.61,0,*6B
1488488482.89,50990,9.13,72764.0,-11.83,-19.71,-24.83,0,*6D
1488488484.14,50991,9.13,72762.0,-11.83,-19.81,-25.49,0,*64
1488488485.39,50992,9.13,72762.3,-11.83,-19.95,-25.97,0,*61
1488488486.65,50993,9.19,72762.3,-11.81,-20.15,-26.39,0,*67
1488488487.94,50994,9.13,72758.3,-11.81,-20.35,-26.93,0,*62
1488488489.21,50995,9.13,72756.0,-11.81,-20.63,-27.45,0,*6A
1488488490.48,50996,9.13,72760.0,-11.81,-20.93,-27.99,0,*67
1488488491.71,50997,9.19,72756.8,-11.83,-21.39,-28.75,0,*68
1488488492.96,50998,9.19,72762.8,-11.81,-21.63,-28.85,0,*65
1488488494.23,50999,9.13,72758.5,-11.81,-21.93,-29.29,0,*6C
1488488495.47,51000,9.13,72758.5,-11.81,-22.37,-29.67,0,*63
1488488496.72,51001,9.13,72756.5,-11.81,-22.83,-29.83,0,*67
1488488497.98,51002,9.13,72758.3,-11.81,-23.39,-30.05,0,*62
1488488499.28,51003,9.13,72758.3,-11.81,-23.85,-30.39,0,*6B
1488488500.56,51004,9.13,72756.0,-11.81,-24.47,-30.51,0,*6B
1488488501.82,51005,9.13,72756.8,-11.81,-25.09,-30.55,0,*65
1488488503.12,51006,9.13,72754.5,-11.81,-25.75,-30.39,0,*67
1488488504.39,51007,9.13,72756.5,-11.81,-26.29,-30.33,0,*66
1488488505.67,51008,9.13,72762.8,-11.79,-26.93,-30.01,0,*6E
1488488506.89,51009,9.13,72760.8,-11.79,-27.51,-29.83,0,*62
1488488508.18,51010,9.13,72760.0,-11.81,-27.99,-29.35,0,*64
1488488509.44,51011,9.13,72760.3,-11.81,-28.47,-28.97,0,*60
1488488510.72,51012,9.13,72758.8,-11.79,-29.01,-28.63,0,*6C
1488488512.02,51013,9.13,72756.3,-11.81,-29.29,-27.99,0,*6A
1488488513.29,51014,9.19,72756.0,-11.81,-29.45,-27.61,0,*60
1488488514.54,51015,9.13,72752.3,-11.81,-29.61,-27.07,0,*67
1488488515.81,51016,9.13,72750.0,-11.81,-29.73,-26.61,0,*66
1488488517.08,51017,9.13,72752.0,-11.81,-29.73,-26.07,0,*67
1488488518.35,51018,9.13,72754.8,-11.81,-29.73,-25.65,0,*6F
1488488519.62,51019,9.13,72750.5,-11.83,-29.73,-25.45,0,*6E
1488488520.87,51020,9.13,72750.5,-11.83,-29.67,-25.29,0,*6B
1488488522.12,51021,9.19,72752.5,-11.83,-29.57,-25.03,0,*61
1488488523.37,51022,9.13,72748.0,-11.83,-29.57,-24.87,0,*6F
1488488524.64,51023,9.13,72750.0,-11.83,-29.39,-24.83,0,*62
1488488525.88,51024,9.13,72750.0,-11.83,-29.23,-24.67,0,*64
1488488527.16,51025,9.13,72750.8,-11.83,-29.01,-24.71,0,*62
1488488528.4,51026,9.13,72750.0,-11.83,-28.63,-24.57,0,*60
1488488529.62,51027,9.13,72750.5,-11.83,-28.31,-24.57,0,*66
1488488530.86,51028,9.13,72746.5,-11.83,-27.99,-24.57,0,*64
1488488532.11,51029,9.19,72750.8,-11.83,-27.67,-24.71,0,*60
1488488533.37,51030,9.13,72748.5,-11.83,-27.35,-24.87,0,*66
1488488534.64,51031,9.13,72748.0,-11.83,-26.71,-25.03,0,*6B
1488488535.89,51032,9.13,72748.8,-11.83,-26.49,-25.45,0,*61
1488488537.13,51033,9.13,72748.3,-11.83,-26.29,-25.65,0,*64
1488488538.41,51034,9.13,72752.5,-11.83,-25.97,-26.13,0,*67
1488488539.65,51035,9.13,72754.8,-11.83,-25.71,-26.49,0,*61
1488488540.93,51036,9.19,72756.8,-11.83,-25.55,-26.97,0,*67
1488488542.15,51037,9.13,72752.5,-11.83,-25.49,-27.67,0,*65
1488488543.4,51038,9.13,72756.8,-11.83,-25.29,-27.89,0,*6C
1488488544.64,51039,9.13,72760.0,-11.83,-25.03,-28.37,0,*6F
1488488545.86,51040,9.13,72754.5,-11.83,-25.13,-28.85,0,*69
1488488547.11,51041,9.13,72746.5,-11.83,-25.13,-29.35,0,*62
1488488548.32,51042,9.13,72750.8,-11.83,-25.19,-29.67,0,*6C
1488488549.59,51043,9.13,72748.8,-11.83,-25.29,-29.89,0,*6E
1488488550.85,51044,9.13,72744.3,-11.83,-25.45,-30.39,0,*60
1488488552.13,51045,9.13,72750.0,-11.83,-25.45,-30.77,0,*6B
1488488553.39,51046,9.13,72754.8,-11.83,-25.45,-31.11,0,*69
1488488554.64,51047,9.13,72756.3,-11.85,-25.49,-31.45,0,*63
1488488555.89,51048,9.13,72754.0,-11.83,-25.55,-31.67,0,*67
1488488557.17,51049,9.13,72754.5,-11.83,-25.55,-31.95,0,*6B
1488488558.41,51050,9.13,72754.8,-11.85,-25.65,-32.35,0,*6F
1488488559.67,51051,9.13,72756.8,-11.85,-25.81,-32.57,0,*60
1488488560.9,51052,9.13,72754.3,-11.83,-26.03,-32.91,0,*66
1488488562.18,51053,9.13,72756.3,-11.85,-26.03,-33.27,0,*6D
1488488563.45,51054,9.13,72756.0,-11.85,-26.17,-33.67,0,*6B
1488488564.69,51055,9.13,72754.8,-11.83,-26.45,-34.19,0,*65
1488488565.96,51056,9.13,72754.0,-11.85,-26.65,-34.53,0,*6C
1488488567.24,51057,9.13,72756.0,-11.83,-26.81,-34.95,0,*6B
1488488568.46,51058,9.13,72758.5,-11.83,-27.03,-35.47,0,*61
1488488569.76,51059,9.13,72758.5,-11.85,-27.45,-35.83,0,*6C
1488488570.98,51060,9.19,72762.0,-11.83,-27.55,-36.07,0,*6E
1488488572.25,51061,9.13,72758.5,-11.85,-28.05,-36.43,0,*63
1488488573.52,51062,9.13,72760.8,-11.85,-28.37,-36.61,0,*61
1488488574.79,51063,9.13,72760.8,-11.85,-28.63,-37.03,0,*64
1488488576.04,51064,9.13,72756.8,-11.85,-29.07,-37.15,0,*67
1488488577.34,51065,9.13,72762.5,-11.85,-29.39,-37.21,0,*6C
1488488578.6,51066,9.13,72762.5,-11.85,-29.73,-37.33,0,*62
1488488579.87,51067,9.13,72766.0,-11.89,-30.33,-37.39,0,*69
1488488581.12,51068,9.13,72766.8,-11.87,-30.67,-37.21,0,*60
1488488582.36,51069,9.13,72768.8,-11.87,-31.05,-37.21,0,*64
1488488583.61,51070,9.13,72762.3,-11.87,-31.57,-37.03,0,*6B
1488488584.9,51071,9.13,72768.8,-11.89,-31.91,-36.91,0,*64
1488488586.14,51072,9.13,72766.8,-11.89,-32.23,-36.73,0,*61
1488488587.39,51073,9.13,72770.0,-11.87,-32.57,-36.61,0,*6E
1488488588.67,51074,9.13,72772.5,-11.89,-32.79,-36.43,0,*6B
1488488589.94,51075,9.13,72772.0,-11.87,-32.97,-36.25,0,*64
1488488591.22,51076,9.13,72772.3,-11.87,-33.09,-35.95,0,*69
1488488592.49,51077,9.13,72774.8,-11.89,-33.31,-35.71,0,*67
1488488593.74,51078,9.13,72774.5,-11.87,-33.21,-35.53,0,*67
1488488595.01,51079,9.13,72774.5,-11.87,-33.31,-35.35,0,*67
1488488596.26,51080,9.13,72776.0,-11.87,-33.21,-35.35,0,*60
1488488597.47,51081,9.13,72772.8,-11.87,-33.15,-35.17,0,*66
1488488598.74,51082,9.13,72774.8,-11.87,-33.09,-34.83,0,*64
1488488600.03,51083,9.13,72772.3,-11.89,-32.97,-34.95,0,*6A
1488488601.33,51084,9.13,72768.0,-11.89,-33.09,-34.95,0,*6B
1488488602.59,51085,9.13,72768.5,-11.89,-33.15,-34.83,0,*60
1488488603.81,51086,9.13,72764.8,-11.87,-33.15,-34.77,0,*66
1488488605.11,51087,9.13,72760.8,-11.89,-33.31,-34.65,0,*6C
1488488606.38,51088,9.13,72760.8,-11.89,-33.49,-34.59,0,*63
1488488607.6,51089,9.13,72764.8,-11.87,-33.67,-34.59,0,*60
1488488608.87,51090,9.13,72762.5,-11.89,-33.83,-34.65,0,*63
1488488610.12,51091,9.13,72766.3,-11.87,-34.01,-34.47,0,*61
1488488611.37,51092,9.13,72754.0,-11.87,-34.07,-34.35,0,*61
1488488612.62,51093,9.13,72744.0,-11.87,-34.07,-34.01,0,*67
1488488613.87,51094,9.13,72742.3,-11.87,-34.19,-33.83,0,*62
1488488615.14,51095,9.13,72728.3,-11.89,-34.19,-33.37,0,*62
1488488616.42,51096,9.13,72704.3,-11.87,-34.19,-33.31,0,*69
1488488617.67,51097,9.13,72706.0,-11.87,-34.07,-32.97,0,*6A
1488488618.94,51098,9.13,72718.5,-11.87,-33.89,-32.75,0,*68
1488488620.19,51099,9.13,72724.8,-11.87,-33.73,-32.57,0,*6C
1488488621.44,51100,9.13,72736.5,-11.87,-33.49,-32.39,0,*6C
1488488622.66,51101,9.13,72738.0,-11.87,-33.21,-32.23,0,*68
1488488623.91,51102,9.13,72732.0,-11.87,-32.97,-32.01,0,*67
1488488625.2,51103,9.13,72728.3,-11.85,-32.75,-31.85,0,*67
1488488626.45,51104,9.13,72738.5,-11.87,-32.57,-31.73,0,*6B
1488488627.69,51105,9.13,72742.8,-11.85,-32.35,-31.45,0,*69
1488488628.94,51106,9.13,72744.3,-11.87,-32.23,-31.23,0,*6F
1488488630.19,51107,9.13,72732.3,-11.85,-32.01,-31.01,0,*6C
1488488631.49,51108,9.13,72736.3,-11.85,-31.85,-30.73,0,*68
1488488632.76,51109,9.13,72738.0,-11.85,-31.79,-30.55,0,*6E
1488488634.0,51110,9.13,72730.0,-11.85,-31.79,-30.27,0,*63
1488488635.27,51111,9.13,72730.5,-11.85,-31.79,-29.89,0,*6E
1488488636.51,51112,9.13,72730.5,-11.85,-31.67,-29.57,0,*61
1488488637.78,51113,9.13,72728.5,-11.85,-31.85,-29.07,0,*69
1488488639.0,51114,9.13,72726.5,-11.87,-32.13,-28.69,0,*69
1488488640.27,51115,9.13,72728.3,-11.85,-32.07,-27.89,0,*6E
1488488641.54,51116,9.13,72726.0,-11.85,-32.01,-27.45,0,*6B
1488488642.83,51117,9.13,72730.5,-11.85,-32.19,-26.81,0,*6A
1488488644.13,51118,9.13,72736.3,-11.85,-32.19,-26.17,0,*6A
1488488645.42,51119,9.13,72740.0,-11.85,-32.07,-25.29,0,*6A
1488488646.68,51120,9.13,72752.5,-11.83,-32.01,-24.71,0,*6C
1488488647.94,51121,9.13,72752.5,-11.85,-31.85,-23.89,0,*64
1488488649.2,51122,9.13,72742.8,-11.85,-31.67,-23.33,0,*6A
1488488650.47,51123,9.13,72750.3,-11.85,-31.29,-22.73,0,*64
1488488651.74,51124,9.13,72748.3,-11.83,-30.77,-21.97,0,*66
1488488653.03,51125,9.13,72750.8,-11.85,-30.61,-21.53,0,*6E
1488488654.32,51126,9.13,72754.0,-11.85,-30.05,-21.03,0,*6A
1488488655.59,51127,9.13,72752.5,-11.85,-29.57,-20.83,0,*6D
1488488656.87,51128,9.13,72754.3,-11.85,-28.91,-20.39,0,*68
1488488658.14,51129,9.13,72752.3,-11.85,-28.47,-20.25,0,*6F
1488488659.38,51130,9.13,72748.0,-11.85,-27.89,-20.05,0,*68
1488488660.65,51131,9.13,72746.3,-11.85,-27.35,-19.95,0,*6D
1488488661.92,51132,9.13,72748.8,-11.85,-26.97,-19.91,0,*63
1488488663.15,51133,9.13,72752.0,-11.83,-26.49,-19.91,0,*67
1488488664.42,51134,9.13,72756.0,-11.85,-26.13,-19.95,0,*6D
1488488665.69,51135,9.13,72762.0,-11.85,-25.81,-19.95,0,*64
1488488666.95,51136,9.13,72764.0,-11.85,-25.35,-19.81,0,*6D
1488488668.19,51137,9.13,72776.0,-11.83,-24.87,-19.75,0,*69
1488488669.43,51138,9.13,72772.5,-11.85,-24.57,-19.47,0,*6C
1488488670.71,51139,9.13,72762.0,-11.85,-24.35,-19.27,0,*6F
1488488671.97,51140,9.13,72764.0,-11.83,-24.15,-19.27,0,*65
1488488673.2,51141,9.13,72770.0,-11.83,-23.75,-19.13,0,*62
1488488674.44,51142,9.13,72768.8,-11.85,-23.43,-18.99,0,*61
1488488675.67,51143,9.13,72770.3,-11.85,-23.39,-18.99,0,*6D
1488488676.91,51144,9.13,72762.8,-11.83,-23.03,-18.99,0,*65
1488488678.13,51145,9.13,72760.3,-11.83,-22.93,-18.99,0,*6C
1488488679.36,51146,9.13,72760.3,-11.83,-22.73,-19.03,0,*63
1488488680.58,51147,9.13,72760.3,-11.83,-22.63,-19.17,0,*66
1488488681.8,51148,9.13,72760.0,-11.83,-22.57,-19.37,0,*6C
1488488683.03,51149,9.13,72760.5,-11.83,-22.57,-19.51,0,*6D
1488488684.3,51150,9.13,72760.8,-11.83,-22.47,-19.65,0,*63
1488488685.57,51151,9.13,72760.5,-11.81,-22.53,-19.85,0,*6B
1488488686.82,51152,9.13,72758.5,-11.81,-22.57,-19.91,0,*69
1488488688.07,51153,9.13,72762.3,-11.81,-22.57,-20.05,0,*6F
1488488689.29,51154,9.13,72762.0,-11.83,-22.63,-20.09,0,*61
1488488690.53,51155,9.13,72762.3,-11.83,-22.63,-20.19,0,*61
1488488691.78,51156,9.13,72760.5,-11.83,-22.57,-20.19,0,*65
1488488693.05,51157,9.13,72762.3,-11.81,-22.53,-20.15,0,*6E
1488488694.3,51158,9.13,72762.8,-11.81,-22.41,-19.99,0,*6C
1488488695.54,51159,9.13,72766.5,-11.83,-22.31,-20.09,0,*6B
1488488696.79,51160,9.13,72756.5,-11.81,-22.27,-19.99,0,*67
1488488698.03,51161,9.13,72750.0,-11.81,-22.03,-19.99,0,*60
1488488699.27,51162,9.13,72744.0,-11.81,-22.03,-19.99,0,*63
1488488700.52,51163,9.13,72746.3,-11.81,-21.93,-20.05,0,*67
1488488701.79,51164,9.13,72746.0,-11.81,-21.77,-20.15,0,*6B
1488488703.02,51165,9.13,72746.5,-11.83,-21.77,-20.39,0,*66
1488488704.29,51166,9.13,72748.8,-11.81,-21.57,-20.39,0,*65
1488488705.56,51167,9.13,72750.0,-11.81,-21.43,-20.53,0,*6D
1488488706.81,51168,9.13,72746.5,-11.81,-21.43,-20.69,0,*6B
1488488708.05,51169,9.13,72746.3,-11.81,-21.13,-20.93,0,*6A
1488488709.26,51170,9.13,72744.8,-11.79,-21.09,-21.09,0,*6C
1488488710.54,51171,9.13,72742.8,-11.81,-21.09,-21.23,0,*62
1488488711.81,51172,9.13,72750.8,-11.79,-20.99,-21.57,0,*6D
1488488713.08,51173,9.13,72752.5,-11.81,-20.83,-21.77,0,*62
1488488714.32,51174,9.13,72756.5,-11.81,-20.69,-22.07,0,*65
1488488715.56,51175,9.13,72748.0,-11.81,-20.69,-22.37,0,*67
1488488716.8,51176,9.13,72750.0,-11.79,-20.53,-22.67,0,*6F
1488488718.1,51177,9.13,72750.3,-11.81,-20.53,-23.19,0,*61
1488488719.37,51178,9.13,72750.8,-11.81,-20.39,-23.65,0,*69
1488488720.61,51179,9.13,72750.0,-11.81,-20.39,-24.31,0,*6E
1488488721.85,51180,9.13,72750.3,-11.81,-20.29,-24.61,0,*6C
1488488723.11,51181,9.13,72754.8,-11.81,-20.35,-25.23,0,*67
1488488724.35,51182,9.13,72752.3,-11.81,-20.29,-25.65,0,*6B
1488488725.59,51183,9.13,72756.3,-11.81,-20.29,-26.39,0,*60
1488488726.85,51184,9.13,72756.3,-11.81,-20.35,-27.07,0,*66
1488488728.1,51185,9.13,72760.8,-11.81,-20.39,-27.67,0,*6D
1488488729.38,51186,9.13,72758.8,-11.81,-20.63,-28.25,0,*68
1488488730.64,51187,9.13,72758.8,-11.81,-20.63,-29.13,0,*6D
1488488731.91,51188,9.13,72760.8,-11.81,-20.83,-29.83,0,*65
1488488733.18,51189,9.13,72760.0,-11.81,-21.09,-30.39,0,*6E
1488488734.48,51190,9.13,72762.0,-11.81,-21.33,-31.11,0,*64
1488488735.72,51191,9.13,72760.3,-11.83,-21.77,-31.85,0,*6A
1488488736.99,51192,9.13,72760.5,-11.81,-22.03,-32.45,0,*64
1488488738.26,51193,9.13,72760.3,-11.85,-22.47,-33.15,0,*65
1488488739.48,51194,9.13,72762.3,-11.83,-22.93,-33.67,0,*68
1488488740.73,51195,9.13,72760.8,-11.83,-23.33,-34.13,0,*66
1488488741.97,51196,9.13,72762.3,-11.83,-23.75,-34.35,0,*63
1488488743.19,51197,9.13,72760.3,-11.83,-24.31,-34.71,0,*65
1488488744.49,51198,9.13,72762.8,-11.85,-24.83,-35.07,0,*65
1488488745.75,51199,9.13,72760.3,-11.83,-25.29,-35.23,0,*65
1488488747.03,51200,9.13,72760.0,-11.85,-25.71,-35.29,0,*67
1488488748.3,51201,9.13,72764.0,-11.83,-26.17,-35.41,0,*6D
1488488749.57,51202,9.13,72764.0,-11.85,-26.49,-35.41,0,*63
1488488750.87,51203,9.13,72764.5,-11.85,-26.97,-35.41,0,*61
1488488752.17,51204,9.13,72766.8,-11.85,-27.45,-35.41,0,*68
1488488753.41,51205,9.13,72760.8,-11.83,-27.71,-35.41,0,*68
1488488754.66,51206,9.13,72762.8,-11.85,-27.89,-35.29,0,*64
1488488755.93,51207,9.13,72764.0,-11.85,-28.05,-35.13,0,*67
1488488757.2,51208,9.13,72764.0,-11.85,-28.31,-34.95,0,*60
1488488758.46,51209,9.13,72766.8,-11.85,-28.47,-34.89,0,*6D
1488488759.71,51210,9.13,72768.5,-11.85,-28.53,-34.77,0,*61
1488488760.96,51211,9.13,72764.5,-11.87,-28.59,-34.77,0,*68
1488488762.21,51212,9.13,72768.3,-11.87,-28.59,-34.59,0,*67
1488488763.42,51213,9.13,72768.8,-11.87,-28.69,-34.41,0,*6C
1488488764.69,51214,9.13,72770.5,-11.87,-28.75,-34.35,0,*65
1488488765.97,51215,9.13,72770.8,-11.89,-28.75,-34.35,0,*6A
1488488767.21,51216,9.13,72770.8,-11.89,-28.69,-34.25,0,*65
1488488768.42,51217,9.13,72772.0,-11.87,-28.69,-34.25,0,*6A
1488488769.68,51218,9.13,72774.8,-11.87,-28.75,-34.19,0,*67
1488488770.95,51219,9.13,72774.8,-11.87,-28.79,-34.19,0,*6A
1488488772.21,51220,9.13,72776.5,-11.89,-29.07,-34.19,0,*66
1488488773.45,51221,9.13,72774.3,-11.89,-29.23,-34.07,0,*6E
1488488774.73,51222,9.13,72774.0,-11.89,-29.23,-34.01,0,*6B
1488488776.0,51223,9.13,72776.8,-11.91,-29.35,-33.89,0,*63
1488488777.25,51224,9.13,72774.3,-11.91,-29.45,-33.73,0,*66
1488488778.5,51225,9.13,72776.0,-11.91,-29.61,-33.73,0,*61
1488488779.76,51226,9.13,72778.3,-11.89,-29.73,-33.55,0,*6C
1488488781.03,51227,9.13,72778.5,-11.89,-29.83,-33.31,0,*60
1488488782.3,51228,9.13,72782.3,-11.89,-30.01,-33.15,0,*6B
1488488783.57,51229,9.13,72780.5,-11.89,-30.27,-32.79,0,*65
1488488784.83,51230,9.13,72780.5,-11.91,-30.55,-32.79,0,*61
1488488786.08,51231,9.13,72784.0,-11.91,-30.73,-32.51,0,*6E
1488488787.33,51232,9.13,72784.3,-11.95,-30.89,-32.35,0,*6E
1488488788.57,51233,9.13,72782.8,-11.91,-31.05,-32.19,0,*60
1488488789.85,51234,9.13,72784.0,-11.91,-31.23,-31.95,0,*64
1488488791.11,51235,9.13,72786.0,-11.91,-31.39,-31.61,0,*65
1488488792.36,51236,9.13,72788.3,-11.91,-31.57,-31.29,0,*62
1488488793.64,51237,9.13,72786.5,-11.91,-31.73,-31.11,0,*6E
1488488794.89,51238,9.13,72790.8,-11.91,-31.73,-30.83,0,*6B
1488488796.16,51239,9.13,72790.5,-11.95,-31.73,-30.51,0,*61
1488488797.42,51240,9.13,72786.8,-11.95,-31.73,-30.33,0,*6B
1488488798.66,51241,9.13,72788.0,-11.95,-31.79,-30.01,0,*61
1488488799.91,51242,9.13,72788.3,-11.95,-31.79,-29.89,0,*6A
1488488801.15,51243,9.13,72790.0,-11.95,-31.61,-29.79,0,*6D
1488488802.4,51244,9.13,72786.5,-11.95,-31.61,-29.61,0,*63
1488488803.62,51245,9.13,72790.8,-11.95,-31.45,-29.45,0,*62
1488488804.87,51246,9.13,72788.0,-11.95,-31.29,-29.35,0,*6C
1488488806.14,51247,9.13,72788.5,-11.91,-31.11,-29.17,0,*62
1488488807.4,51248,9.13,72786.8,-11.91,-31.23,-29.13,0,*68
1488488808.67,51249,9.13,72784.0,-11.95,-31.39,-29.17,0,*62
1488488809.94,51250,9.13,72786.0,-11.95,-31.57,-29.01,0,*65
1488488811.17,51251,9.13,72784.3,-11.97,-31.79,-29.07,0,*6C
1488488812.44,51252,9.13,72786.5,-11.97,-31.79,-28.91,0,*61
1488488813.67,51253,9.13,72786.3,-11.95,-31.79,-28.85,0,*67
1488488814.96,51254,9.13,72784.5,-11.97,-31.95,-28.47,0,*6E
1488488816.21,51255,9.13,72784.0,-11.97,-32.01,-28.31,0,*60
1488488817.51,51256,9.13,72786.3,-11.97,-31.95,-27.99,0,*60
1488488818.81,51257,9.13,72780.8,-11.97,-31.95,-27.61,0,*66
1488488820.05,51258,9.13,72780.0,-11.95,-31.79,-27.23,0,*6F
1488488821.27,51259,9.13,72780.8,-11.95,-31.79,-27.07,0,*68
1488488822.52,51260,9.13,72776.8,-11.91,-31.79,-26.97,0,*6E
1488488823.79,51261,9.13,72768.5,-11.95,-31.61,-26.93,0,*66
1488488825.06,51262,9.13,72762.3,-11.95,-31.61,-26.93,0,*65
1488488826.33,51263,9.13,72750.8,-11.97,-31.61,-26.87,0,*63
1488488827.6,51264,9.13,72746.3,-11.95,-31.57,-26.81,0,*65
1488488828.85,51265,9.13,72746.0,-11.95,-31.45,-26.93,0,*64
1488488830.07,51266,9.13,72746.8,-11.95,-31.45,-27.13,0,*6E
1488488831.34,51267,9.13,72740.8,-11.95,-31.57,-27.23,0,*6F
1488488832.59,51268,9.13,72736.3,-11.95,-31.57,-27.13,0,*63
1488488833.83,51269,9.13,72732.8,-11.95,-31.61,-27.13,0,*67
1488488835.11,51270,9.13,72726.5,-11.95,-31.73,-26.93,0,*65
1488488836.35,51271,9.13,72734.3,-11.95,-31.79,-26.81,0,*6D
1488488837.59,51272,9.13,72732.0,-11.95,-31.91,-26.61,0,*66
1488488838.87,51273,9.13,72726.5,-11.95,-31.91,-26.29,0,*6B
1488488840.11,51274,9.13,72726.5,-11.95,-31.95,-25.91,0,*68
1488488841.36,51275,9.13,72718.8,-11.95,-31.79,-25.45,0,*62
1488488842.58,51276,9.13,72724.5,-11.95,-31.79,-24.97,0,*6F
1488488843.82,51277,9.13,72724.3,-11.95,-31.61,-24.47,0,*6A
1488488845.06,51278,9.13,72728.8,-11.91,-31.45,-24.15,0,*60
1488488846.33,51279,9.13,72726.8,-11.95,-31.23,-23.53,0,*60
1488488847.58,51280,9.13,72732.3,-11.95,-31.05,-23.03,0,*67
1488488848.79,51281,9.13,72732.0,-11.91,-31.01,-22.57,0,*66
1488488850.06,51282,9.13,72734.0,-11.91,-30.73,-22.21,0,*60
1488488851.3,51283,9.13,72736.5,-11.91,-30.55,-21.93,0,*6F
1488488852.53,51284,9.13,72738.0,-11.95,-30.23,-21.57,0,*65
1488488853.78,51285,9.13,72736.3,-11.91,-29.83,-20.99,0,*61
1488488855.0,51286,9.13,72736.3,-11.91,-29.67,-20.69,0,*67
1488488856.25,51287,9.13,72738.8,-11.91,-29.29,-20.29,0,*68
1488488857.49,51288,9.13,72738.8,-11.91,-28.75,-19.71,0,*68
1488488858.73,51289,9.13,72740.8,-11.91,-28.31,-19.23,0,*6E
1488488859.94,51290,9.13,72740.8,-11.91,-27.93,-18.83,0,*6A
1488488861.22,51291,9.13,72742.0,-11.95,-27.45,-18.31,0,*6D
1488488862.47,51292,9.13,72740.8,-11.91,-26.97,-17.87,0,*66
1488488863.71,51293,9.13,72740.8,-11.95,-26.55,-17.31,0,*60
1488488864.92,51294,9.13,72740.3,-11.91,-25.91,-16.97,0,*65
1488488866.14,51295,9.13,72740.5,-11.91,-25.39,-16.55,0,*68
1488488867.36,51296,9.13,72738.0,-11.91,-24.93,-16.41,0,*6F
1488488868.61,51297,9.13,72738.3,-11.91,-24.47,-16.13,0,*60
1488488869.86,51298,9.13,72738.8,-11.91,-23.79,-15.85,0,*69
1488488871.13,51299,9.13,72734.8,-11.89,-23.29,-15.49,0,*64
1488488872.4,51300,9.13,72736.3,-11.89,-22.63,-15.35,0,*61
1488488873.65,51301,9.13,72738.3,-11.89,-22.11,-15.29,0,*68
1488488874.9,51302,9.13,72738.5,-11.87,-21.67,-15.07,0,*6B
1488488876.17,51303,9.13,72738.0,-11.89,-21.03,-15.07,0,*66
1488488877.44,51304,9.13,72736.3,-11.89,-20.59,-15.01,0,*69
1488488878.72,51305,9.13,72738.3,-11.89,-20.15,-14.93,0,*6A
1488488880.02,51306,9.13,72736.0,-11.89,-19.65,-15.01,0,*6E
1488488881.27,51307,9.13,72740.0,-11.87,-19.23,-14.89,0,*62
1488488882.55,51308,9.13,72744.0,-11.87,-18.93,-14.79,0,*68
1488488883.78,51309,9.13,72744.3,-11.87,-18.49,-14.89,0,*61
1488488885.02,51310,9.13,72742.8,-11.87,-18.11,-14.79,0,*6B
1488488886.27,51311,9.13,72748.0,-11.87,-17.83,-14.79,0,*6E
1488488887.52,51312,9.13,72744.5,-11.87,-17.55,-14.65,0,*6B
1488488888.8,51313,9.13,72744.8,-11.87,-17.25,-14.79,0,*60
1488488890.02,51314,9.13,72748.0,-11.87,-16.97,-14.89,0,*60
1488488891.27,51315,9.13,72750.3,-11.87,-16.69,-14.89,0,*60
1488488892.51,51316,9.13,72754.8,-11.87,-16.55,-14.89,0,*6C
1488488893.77,51317,9.13,72748.3,-11.83,-16.31,-14.83,0,*61
1488488895.07,51318,9.13,72746.8,-11.85,-16.13,-14.83,0,*68
1488488896.31,51319,9.13,72750.5,-11.83,-15.99,-14.83,0,*6E
1488488897.58,51320,9.13,72750.5,-11.85,-15.85,-14.89,0,*65
1488488898.85,51321,9.13,72748.0,-11.85,-15.57,-14.89,0,*6B
1488488900.12,51322,9.13,72754.3,-11.83,-15.57,-15.01,0,*6F
1488488901.39,51323,9.13,72748.5,-11.83,-15.43,-14.97,0,*65
1488488902.66,51324,9.13,72748.3,-11.83,-15.39,-14.97,0,*6F